Satellite: AEROCUB3
Catalog number: 35005
Epoch time:      09327.79973996
Element set:    0158
Inclination:      040.4753 deg
RA of node:       003.8484 deg
Eccentricity:    0.0026780
Arg of perigee:   275.9304 deg
Mean anomaly:     083.8472 deg
Mean motion:   15.41374417 rev/day
Decay rate:      8.272e-05 rev/day^2
Epoch rev:           02896
Checksum:              334

Satellite: DRAGNSAT
Catalog number: 35690
Epoch time:      09328.09687850
Element set:     117
Inclination:      051.6368 deg
RA of node:       197.3385 deg
Eccentricity:    0.0006133
Arg of perigee:   159.4534 deg
Mean anomaly:     200.6718 deg
Mean motion:   15.87895713 rev/day
Decay rate:     5.8393e-04 rev/day^2
Epoch rev:            1847
Checksum:              339

Satellite: POLLUX
Catalog number: 35693
Epoch time:      09327.33248859
Element set:     122
Inclination:      051.6386 deg
RA of node:       202.0006 deg
Eccentricity:    0.0005056
Arg of perigee:   123.1813 deg
Mean anomaly:     236.9782 deg
Mean motion:   15.86600595 rev/day
Decay rate:     5.0356e-04 rev/day^2
Epoch rev:            1831
Checksum:              289

Satellite: CASTOR
Catalog number: 35694
Epoch time:      09328.12493400
Element set:     111
Inclination:      051.6398 deg
RA of node:       199.0805 deg
Eccentricity:    0.0005072
Arg of perigee:   117.7435 deg
Mean anomaly:     242.4115 deg
Mean motion:   15.83321225 rev/day
Decay rate:     2.3561e-04 rev/day^2
Epoch rev:            1842
Checksum:              271

Satellite: METEOR-M
Catalog number: 35865
Epoch time:      09328.49334562
Element set:      62
Inclination:      098.7894 deg
RA of node:       018.4477 deg
Eccentricity:    0.0001906
Arg of perigee:   216.1521 deg
Mean anomaly:     143.9505 deg
Mean motion:   14.21827542 rev/day
Decay rate:       1.76e-06 rev/day^2
Epoch rev:             963
Checksum:              308

/EX
_______________________________________________
Via the Keps mailing list courtesy of AMSAT-NA
http://amsat.org/mailman/listinfo/keps

--- ViaMAIL!/WC v1.60d
 * Origin: Chowdanet (401-724-4410) telnet://chowdanet.com  (1:323/120)